[[{"header":{"parameterUnit":"m.s-1","parameterCategory":1,"la1":30.2991,"la2":30.254,"lo1":-89.0895,"lo2":-89.0444,"dy":0.0017,"dx":0.0017,"nx":28,"ny":28,"refTime":"2024-04-02T21:00:00:Z","depth":0,"parameterNumber":2,"parameterNumberName":"U-component_of_WINDS"},"data":[0,0,0,0,0,0,0,0,0,0,0,0,0,0,0,0,0,0,0,0,0,0,0,0,0,0,0,0,0,0,0,0,0,0,0,0,0,0,0,0,0,0,0,0,0,0,0,0,0,0,0,0,0,0,0,0,0,0,5.8806,5.8806,0,5.8787,5.8787,5.8786,5.8685,5.8682,5.868,5.8677,5.8657,5.8659,5.8661,0,0,0,0,0,0,0,0,0,0,0,0,0,5.8756,5.8757,5.8806,5.8806,5.8805,5.8787,5.8787,5.8786,5.8685,5.8682,5.8679,5.8676,5.8657,5.8659,5.8661,0,0,0,0,0,0,0,0,0,0,0,0,0,5.8762,5.8758,5.8806,5.8753,5.8748,5.8787,5.8787,5.8786,5.8686,5.8682,5.8678,5.8675,5.8656,5.8659,5.8661,5.875,0,0,5.8669,5.867,0,0,0,0,0,0,0,0,5.8761,5.8763,5.8761,5.8756,5.8751,5.8734,5.8762,5.8774,5.8687,5.8709,5.8677,5.8673,5.8686,5.8686,5.869,5.8749,5.8748,5.8669,5.8671,5.8672,5.8673,0,0,0,0,0,0,0,5.8761,5.8764,5.8798,5.8761,5.8755,5.873,5.8727,5.8764,5.8718,5.8707,5.8699,5.8699,5.8682,5.8688,5.8689,5.8748,5.8669,5.8672,5.8673,5.8674,5.8884,5.8887,0,0,0,0,0,0,5.8768,5.8764,5.8799,5.8798,5.8747,5.8734,5.873,5.8743,5.8717,5.871,5.8702,5.8694,5.8685,5.8686,5.8688,5.8793,5.8672,5.8674,5.8676,5.888,5.8884,5.8889,0,0,0,0,0,0,5.8767,5.8772,5.88,5.8779,5.878,5.8739,5.8754,5.8745,5.875,5.8714,5.8705,5.8716,5.8682,5.8684,5.8736,5.8791,5.8676,5.8678,5.8875,5.8881,5.8887,5.9003,0,0,0,0,0,0,5.8766,5.8772,5.8805,5.878,5.8782,5.8848,5.8757,5.8747,5.8755,5.8745,5.8724,5.8717,5.868,5.8733,5.8739,5.8792,5.868,5.887,5.8878,5.8885,5.8994,5.9012,5.9027,0,0,0,0,0,5.8765,5.8837,5.8807,5.8812,5.8822,5.8851,5.8852,5.8807,5.876,5.8793,5.877,5.8718,5.8784,5.8739,5.8745,5.88,5.8866,5.8875,5.8884,5.8986,5.9008,5.9027,0,0,0,0,0,0,5.8867,5.8833,5.8799,5.8865,5.8863,5.8834,5.8874,5.8832,5.8842,5.8831,5.8775,5.8772,5.8833,5.8821,5.8772,5.8887,5.8816,5.8827,5.8892,5.8913,5.8929,5.8931,5.8682,0,0,0,0,0,5.8898,5.8925,5.8893,5.8955,5.8955,5.8916,5.8926,5.8893,5.8887,5.8885,5.8866,5.8863,5.8883,5.8897,5.8913,5.8992,5.8987,5.9033,5.905,5.9064,5.9073,5.9118,5.9138,5.8918,5.8918,5.8918,0,0,5.8961,5.8945,5.8965,5.8975,5.8969,5.8999,5.8915,5.8949,5.8971,5.889,5.8939,5.8926,5.8918,5.8985,5.9014,5.8977,5.9134,5.9075,5.9087,5.9089,5.9129,5.915,5.9169,5.8924,5.8923,5.8922,0,0,5.9091,5.9081,5.9133,5.913,5.9122,5.9096,5.9109,5.9088,5.9077,5.9125,5.9066,5.9092,5.9127,5.9126,5.9129,5.9265,5.9219,5.9272,5.936,5.9404,5.9421,5.9436,5.9487,5.9505,5.9282,5.9282,5.9283,0,5.917,5.9213,5.9165,5.9205,5.9212,5.9143,5.9196,5.9195,5.9193,5.92,5.916,5.9205,5.9195,5.9263,5.9296,5.9301,5.9315,5.9274,5.9422,5.9437,5.945,5.9498,5.9517,5.9289,5.9288,5.9288,5.9287,0,5.9312,5.9343,5.9386,5.9388,5.94,5.9447,5.9408,5.9426,5.9393,5.9372,5.9424,5.941,5.9424,5.9438,5.9404,5.9502,5.948,5.9432,5.936,5.9479,5.9523,5.954,5.9299,5.9296,5.9294,5.9293,0,0,5.9503,5.9482,5.9499,5.9501,5.9489,5.9513,5.9557,5.9572,5.9591,5.9593,5.963,5.9664,5.9621,5.9625,5.9592,5.963,5.9742,5.9578,5.9577,5.961,5.9852,5.9889,5.991,5.9712,5.9715,5.9718,5.9853,0,5.963,5.9705,5.9666,5.9746,5.9776,5.9713,5.9752,5.9751,5.9733,5.9756,5.9736,5.9763,5.9702,5.9705,5.9741,5.9721,5.979,5.9711,5.9747,5.9749,5.9752,5.9933,5.9971,6.0099,5.987,5.9873,5.9875,0,5.9786,5.9798,5.9882,5.987,5.9881,5.9917,5.993,5.9952,5.995,5.9935,5.9943,5.9902,5.9946,5.9876,5.9938,5.9885,5.9898,5.9891,5.9895,5.9897,5.9819,5.9941,6.0139,6.0159,5.9901,5.9899,5.9897,0,5.992,5.9957,6.0013,6.0016,6.0002,6.003,6.0025,6.0019,6.0032,6.0044,6.0052,6.0069,6.0078,6.0092,6.0057,6.0009,6.0125,6.0051,6.0115,6.0116,6.0142,6.0141,6.0346,6.0149,6.0149,6.0149,6.0148,0,6.0066,6.0121,6.0074,6.0108,6.0169,6.0125,6.0186,6.0174,6.0171,6.0203,6.0149,6.018,6.0132,6.0159,6.0132,6.0189,6.0193,6.0183,6.0176,6.0189,6.019,6.0196,6.0187,6.0154,6.0153,6.0152,6.0151,0,6.0225,6.0196,6.0253,6.0237,6.0234,6.028,6.0266,6.0298,6.0278,6.032,6.0328,6.0297,6.0326,6.0293,6.032,6.0302,6.038,6.0358,6.0381,6.0375,6.0442,6.0436,6.0658,6.0686,6.0471,6.0473,6.0475,0,6.0321,6.0362,6.0351,6.037,6.0369,6.0399,6.0413,6.0372,6.0389,6.0392,6.0425,6.045,6.0468,6.0519,6.05,6.0521,6.05,6.0577,6.0503,6.0516,6.0503,6.0501,6.0506,6.0591,6.0594,6.0596,6.0598,0,6.0494,6.0478,6.0501,6.052,6.0539,6.0551,6.056,6.0578,6.0536,6.0558,6.0589,6.0603,6.0632,6.0659,6.0676,6.0671,6.0629,6.0622,6.0638,6.0651,6.0664,6.066,6.0423,6.0616,6.0614,6.0613,6.0612,6.0611,6.0625,6.066,6.0659,6.0687,6.069,6.07,6.0731,6.0717,6.0742,6.0763,6.0737,6.0776,6.0776,6.0794,6.0795,6.0826,6.0793,6.0816,6.0822,6.0828,6.0839,6.0659,6.0828,6.0828,6.0827,6.0827,6.0826,0,6.0797,6.0794,6.082,6.0836,6.0859,6.0818,6.0826,6.0848,6.0883,6.0888,6.0908,6.0945,6.0972,6.0956,6.0979,6.1007,6.0988,6.1015,6.1012,6.1013,6.0866,6.085,6.103,6.103,6.103,6.1029,6.1029,6.1029,6.0889,6.0947,6.0932,6.0993,6.0989,6.1028,6.1036,6.1046,6.105,6.1094,6.1117,6.1107,6.1104,6.1127,6.1151,6.1146,6.1157,6.1191,6.1179,6.1042,6.1022,6.1003,6.0988,6.1194,6.1194,6.1323,6.1324,6.1325]},{"header":{"parameterUnit":"m.s-1","parameterCategory":1,"la1":30.2991,"la2":30.254,"lo1":-89.0895,"lo2":-89.0444,"dy":0.0017,"dx":0.0017,"nx":28,"ny":28,"refTime":"2024-04-02T21:00:00:Z","depth":0,"parameterNumber":3,"parameterNumberName":"V-component_of_WINDS"},"data":[0,0,0,0,0,0,0,0,0,0,0,0,0,0,0,0,0,0,0,0,0,0,0,0,0,0,0,0,0,0,0,0,0,0,0,0,0,0,0,0,0,0,0,0,0,0,0,0,0,0,0,0,0,0,0,0,0,0,-0.4043,-0.4038,0,-0.3556,-0.3551,-0.3545,-0.3394,-0.3396,-0.3398,-0.3401,-0.2889,-0.2873,-0.2858,0,0,0,0,0,0,0,0,0,0,0,0,0,-0.4831,-0.4817,-0.4043,-0.4037,-0.4031,-0.3557,-0.355,-0.3544,-0.3393,-0.3396,-0.3399,-0.3402,-0.2894,-0.2875,-0.2856,0,0,0,0,0,0,0,0,0,0,0,0,0,-0.4431,-0.4813,-0.4044,-0.3899,-0.3882,-0.3558,-0.355,-0.3542,-0.3393,-0.3396,-0.34,-0.3403,-0.29,-0.2877,-0.2854,-0.2635,0,0,-0.2781,-0.2771,0,0,0,0,0,0,0,0,-0.4454,-0.4402,-0.3927,-0.3909,-0.3888,-0.354,-0.364,-0.3237,-0.3392,-0.3578,-0.3401,-0.3405,-0.3101,-0.3061,-0.2962,-0.2611,-0.259,-0.2779,-0.2764,-0.2754,-0.2747,0,0,0,0,0,0,0,-0.4481,-0.4422,-0.385,-0.392,-0.3896,-0.3855,-0.3802,-0.3563,-0.3325,-0.3562,-0.355,-0.3495,-0.3092,-0.2985,-0.2949,-0.2582,-0.2779,-0.2758,-0.2744,-0.2734,-0.2027,-0.2023,0,0,0,0,0,0,-0.4536,-0.4446,-0.3866,-0.3836,-0.4186,-0.3838,-0.3778,-0.3648,-0.3327,-0.3282,-0.3493,-0.349,-0.3024,-0.2977,-0.293,-0.2652,-0.2754,-0.2732,-0.2718,-0.2032,-0.2026,-0.2021,0,0,0,0,0,0,-0.4553,-0.4485,-0.3885,-0.4137,-0.4058,-0.382,-0.3675,-0.3636,-0.353,-0.3275,-0.3231,-0.3428,-0.3025,-0.2963,-0.2711,-0.2633,-0.2721,-0.27,-0.2037,-0.203,-0.2024,-0.2097,0,0,0,0,0,0,-0.4576,-0.4493,-0.441,-0.4137,-0.4045,-0.3678,-0.367,-0.3624,-0.3491,-0.3483,-0.3203,-0.316,-0.3023,-0.2747,-0.2687,-0.2602,-0.2681,-0.2043,-0.2034,-0.2026,-0.2101,-0.2094,-0.2088,0,0,0,0,0,-0.4605,-0.4447,-0.4406,-0.4337,-0.3937,-0.3674,-0.362,-0.347,-0.3485,-0.3398,-0.3235,-0.3169,-0.2652,-0.2722,-0.2653,-0.256,-0.2047,-0.2036,-0.2027,-0.2103,-0.2095,-0.2088,0,0,0,0,0,0,-0.4711,-0.4408,-0.436,-0.411,-0.392,-0.3649,-0.3534,-0.3466,-0.3263,-0.3264,-0.3081,-0.3019,-0.278,-0.2644,-0.2728,-0.2332,-0.2346,-0.2322,-0.2429,-0.2418,-0.2413,-0.2448,-0.2661,0,0,0,0,0,-0.4707,-0.4522,-0.4266,-0.4069,-0.3977,-0.3773,-0.3652,-0.3553,-0.3346,-0.3263,-0.3081,-0.288,-0.2672,-0.2538,-0.2332,-0.2082,-0.2017,-0.1983,-0.1977,-0.1973,-0.1953,-0.1809,-0.1791,-0.1988,-0.1988,-0.1988,0,0,-0.4693,-0.4505,-0.4398,-0.4086,-0.3927,-0.3736,-0.3705,-0.3504,-0.3359,-0.3231,-0.2982,-0.2842,-0.2605,-0.2353,-0.2232,-0.2232,-0.1885,-0.196,-0.1959,-0.194,-0.1797,-0.1778,-0.1762,-0.1981,-0.1982,-0.1983,0,0,-0.4571,-0.4412,-0.423,-0.4073,-0.3834,-0.3699,-0.3657,-0.3396,-0.33,-0.3048,-0.2948,-0.2772,-0.2418,-0.2253,-0.2123,-0.1941,-0.1872,-0.1879,-0.1845,-0.1707,-0.1691,-0.1676,-0.161,-0.1588,-0.1861,-0.1861,-0.1861,0,-0.4582,-0.4295,-0.4145,-0.3949,-0.3814,-0.3695,-0.3508,-0.3361,-0.3065,-0.2973,-0.2979,-0.2533,-0.2365,-0.2072,-0.2029,-0.1928,-0.187,-0.1908,-0.1707,-0.169,-0.1674,-0.1608,-0.1584,-0.1863,-0.1863,-0.1863,-0.1863,0,-0.432,-0.4122,-0.4004,-0.3728,-0.3579,-0.3389,-0.3206,-0.3073,-0.2988,-0.2853,-0.2597,-0.2392,-0.2143,-0.2067,-0.198,-0.1761,-0.1768,-0.1743,-0.1754,-0.166,-0.1595,-0.1569,-0.1867,-0.1866,-0.1865,-0.1864,0,0,-0.4247,-0.3894,-0.3852,-0.3725,-0.3455,-0.3296,-0.31,-0.2862,-0.275,-0.2551,-0.238,-0.2085,-0.206,-0.1913,-0.1806,-0.1686,-0.1553,-0.1674,-0.1665,-0.1657,-0.1297,-0.1317,-0.129,-0.1508,-0.1503,-0.1498,-0.1316,0,-0.4088,-0.3738,-0.3598,-0.3311,-0.3125,-0.3011,-0.284,-0.2654,-0.2522,-0.2342,-0.2195,-0.1988,-0.1973,-0.1883,-0.1759,-0.1597,-0.1478,-0.1608,-0.1342,-0.1335,-0.1403,-0.1256,-0.1275,-0.1113,-0.129,-0.1286,-0.1283,0,-0.3855,-0.366,-0.3357,-0.311,-0.3026,-0.2876,-0.2646,-0.2477,-0.2262,-0.2174,-0.2013,-0.1914,-0.17,-0.1729,-0.143,-0.1522,-0.1405,-0.1309,-0.1299,-0.1265,-0.1301,-0.1216,-0.1058,-0.1033,-0.1241,-0.1245,-0.1248,0,-0.383,-0.3491,-0.3265,-0.316,-0.2867,-0.2764,-0.2636,-0.2426,-0.2292,-0.209,-0.2,-0.1775,-0.1651,-0.1477,-0.1319,-0.1355,-0.1035,-0.105,-0.0953,-0.0957,-0.0887,-0.0893,-0.0706,-0.0818,-0.0818,-0.0819,-0.082,0,-0.3665,-0.3484,-0.3251,-0.3112,-0.2904,-0.2744,-0.2542,-0.2405,-0.222,-0.205,-0.1937,-0.1778,-0.1581,-0.1397,-0.1271,-0.1043,-0.0987,-0.0908,-0.0876,-0.0916,-0.0926,-0.0835,-0.0841,-0.0812,-0.0814,-0.0815,-0.0816,0,-0.3601,-0.3438,-0.3185,-0.293,-0.2862,-0.272,-0.2499,-0.2358,-0.2224,-0.201,-0.195,-0.1737,-0.1514,-0.1341,-0.1049,-0.0965,-0.0723,-0.0689,-0.0797,-0.078,-0.0692,-0.0702,-0.0436,-0.0392,-0.0538,-0.0537,-0.0536,0,-0.3505,-0.3364,-0.3096,-0.2976,-0.2851,-0.2659,-0.2523,-0.236,-0.2222,-0.1969,-0.1858,-0.1629,-0.1436,-0.1085,-0.0901,-0.0678,-0.0637,-0.0559,-0.0602,-0.0647,-0.0632,-0.0642,-0.0626,-0.0553,-0.0552,-0.0552,-0.0551,0,-0.3352,-0.328,-0.3091,-0.2873,-0.2715,-0.2535,-0.2352,-0.2259,-0.2062,-0.1913,-0.1687,-0.1538,-0.1244,-0.1016,-0.0775,-0.0638,-0.056,-0.0541,-0.0505,-0.0543,-0.061,-0.0571,-0.078,-0.0546,-0.0546,-0.0547,-0.0547,-0.0547,-0.3266,-0.3136,-0.2928,-0.272,-0.2567,-0.2399,-0.2255,-0.2104,-0.1914,-0.1665,-0.1579,-0.1346,-0.1134,-0.0802,-0.0665,-0.0477,-0.0473,-0.0423,-0.0409,-0.0399,-0.0402,-0.0644,-0.0432,-0.0432,-0.0432,-0.0432,-0.0432,0,-0.3106,-0.2968,-0.2779,-0.2529,-0.2366,-0.2314,-0.2109,-0.1974,-0.1772,-0.1583,-0.1398,-0.1138,-0.0917,-0.0718,-0.0488,-0.0376,-0.0334,-0.032,-0.0325,-0.0294,-0.042,-0.0472,-0.0358,-0.0358,-0.0358,-0.0358,-0.0358,-0.0358,-0.3003,-0.2779,-0.2682,-0.2379,-0.224,-0.2014,-0.1901,-0.1745,-0.1594,-0.131,-0.1128,-0.1002,-0.0808,-0.0563,-0.0357,-0.0304,-0.0223,-0.0218,-0.0156,-0.0276,-0.0286,-0.0295,-0.0343,-0.0203,-0.0202,-0.0044,-0.0043,-0.0042]}]]